07-10-2022, 00:00:02,    185,    0.0,   10.2,   0.00,   0.00, 1019.5,   85.7, -999.0
07-10-2022, 00:00:13,    229,    3.3,   10.3,   0.00,   0.00, 1019.6,   86.1, -999.0
07-10-2022, 00:00:22,    212,    3.7,   10.4,   0.00,   0.00, 1019.6,   86.1, -999.0
07-10-2022, 00:00:32,    170,    3.3,   10.4,   0.00,   0.00, 1019.6,   86.1, -999.0
07-10-2022, 00:00:42,    222,    0.9,   10.4,   0.00,   0.00, 1019.5,   86.0, -999.0
07-10-2022, 00:00:52,    214,    2.7,   10.3,   0.00,   0.00, 1019.5,   86.1, -999.0
07-10-2022, 00:01:02,    264,    4.3,   10.4,   0.00,   0.00, 1019.6,   86.1, -999.0
07-10-2022, 00:01:12,    199,    3.4,   10.4,   0.00,   0.00, 1019.6,   86.1, -999.0
07-10-2022, 00:01:22,    212,    1.2,   10.3,   0.00,   0.00, 1019.6,   86.1, -999.0
07-10-2022, 00:01:32,    215,    1.7,   10.3,   0.00,   0.00, 1019.5,   86.1, -999.0
07-10-2022, 00:01:42,    223,    2.4,   10.4,   0.00,   0.00, 1019.5,   86.1, -999.0
07-10-2022, 00:01:52,    218,    0.4,   10.3,   0.00,   0.00, 1019.5,   86.1, -999.0
07-10-2022, 00:02:02,    219,    0.8,   10.3,   0.00,   0.00, 1019.5,   86.1, -999.0
07-10-2022, 00:02:12,    207,    2.3,   10.4,   0.00,   0.00, 1019.5,   86.1, -999.0
07-10-2022, 00:02:22,    233,    2.1,   10.4,   0.00,   0.00, 1019.5,   86.1, -999.0
07-10-2022, 00:02:31,    243,    2.3,   10.4,   0.00,   0.00, 1019.5,   86.1, -999.0
07-10-2022, 00:02:41,    153,    1.0,   10.4,   0.00,   0.00, 1019.6,   86.1, -999.0
07-10-2022, 00:02:52,    153,    0.1,   10.3,   0.00,   0.00, 1019.5,   85.8, -999.0
07-10-2022, 00:03:01,    237,    0.2,   10.3,   0.00,   0.00, 1019.5,   85.9, -999.0
07-10-2022, 00:03:11,    230,    0.0,   10.3,   0.00,   0.00, 1019.5,   85.7, -999.0
07-10-2022, 00:03:22,    229,    1.4,   10.4,   0.00,   0.00, 1019.6,   86.1, -999.0
07-10-2022, 00:03:31,    229,    2.5,   10.4,   0.00,   0.00, 1019.5,   86.0, -999.0
07-10-2022, 00:03:41,    224,    1.0,   10.3,   0.00,   0.00, 1019.6,   86.1, -999.0
07-10-2022, 00:03:51,    159,    0.0,   10.3,   0.00,   0.00, 1019.5,   85.9, -999.0
07-10-2022, 00:04:01,    159,    0.1,   10.3,   0.00,   0.00, 1019.5,   85.8, -999.0
07-10-2022, 00:04:11,    159,    0.2,   10.3,   0.00,   0.00, 1019.5,   85.9, -999.0
07-10-2022, 00:04:21,    159,    0.0,   10.2,   0.00,   0.00, 1019.5,   85.7, -999.0
07-10-2022, 00:04:31,    159,    0.3,   10.2,   0.00,   0.00, 1019.5,   85.9, -999.0
07-10-2022, 00:04:41,    209,    1.5,   10.3,   0.00,   0.00, 1019.5,   86.0, -999.0
07-10-2022, 00:04:51,    193,    1.3,   10.2,   0.00,   0.00, 1019.5,   86.1, -999.0
07-10-2022, 00:05:01,    218,    1.1,   10.3,   0.00,   0.00, 1019.5,   86.1, -999.0
07-10-2022, 00:05:11,    222,    0.1,   10.3,   0.00,   0.00, 1019.5,   85.9, -999.0
07-10-2022, 00:05:21,    222,    0.5,   10.2,   0.00,   0.00, 1019.5,   86.0, -999.0
07-10-2022, 00:05:31,    220,    0.0,   10.2,   0.00,   0.00, 1019.4,   85.9, -999.0
07-10-2022, 00:05:40,    211,    0.3,   10.3,   0.00,   0.00, 1019.6,   86.2, -999.0
07-10-2022, 00:05:50,    200,    1.2,   10.3,   0.00,   0.00, 1019.5,   86.2, -999.0
07-10-2022, 00:06:01,    209,    0.7,   10.2,   0.00,   0.00, 1019.5,   86.3, -999.0
07-10-2022, 00:06:10,    224,    1.3,   10.3,   0.00,   0.00, 1019.5,   86.3, -999.0
07-10-2022, 00:06:20,    156,    1.2,   10.3,   0.00,   0.00, 1019.5,   86.2, -999.0
07-10-2022, 00:06:31,    234,    1.6,   10.3,   0.00,   0.00, 1019.5,   86.3, -999.0
07-10-2022, 00:06:40,    241,    3.0,   10.3,   0.00,   0.00, 1019.5,   86.3, -999.0
07-10-2022, 00:06:50,    209,    0.7,   10.3,   0.00,   0.00, 1019.6,   86.4, -999.0
07-10-2022, 00:07:00,    221,    0.6,   10.3,   0.00,   0.00, 1019.5,   86.3, -999.0
07-10-2022, 00:07:10,    219,    0.1,   10.2,   0.00,   0.00, 1019.5,   86.2, -999.0
07-10-2022, 00:07:20,    218,    0.0,   10.3,   0.00,   0.00, 1019.5,   86.2, -999.0
07-10-2022, 00:07:30,    219,    0.0,   10.2,   0.00,   0.00, 1019.4,   86.0, -999.0
07-10-2022, 00:07:40,    166,    1.9,   10.3,   0.00,   0.00, 1019.5,   86.3, -999.0
07-10-2022, 00:07:50,    191,    1.3,   10.3,   0.00,   0.00, 1019.5,   86.4, -999.0
07-10-2022, 00:08:00,    168,    1.4,   10.3,   0.00,   0.00, 1019.5,   86.4, -999.0
07-10-2022, 00:08:10,    216,    0.9,   10.3,   0.00,   0.00, 1019.5,   86.4, -999.0
07-10-2022, 00:08:20,    219,    2.1,   10.3,   0.00,   0.00, 1019.5,   86.5, -999.0
07-10-2022, 00:08:30,    234,    0.6,   10.3,   0.00,   0.00, 1019.5,   86.4, -999.0
07-10-2022, 00:08:40,    189,    1.6,   10.3,   0.00,   0.00, 1019.5,   86.4, -999.0
07-10-2022, 00:08:49,    193,    3.9,   10.3,   0.00,   0.00, 1019.5,   86.5, -999.0
07-10-2022, 00:08:59,    187,    2.0,   10.3,   0.00,   0.00, 1019.5,   86.5, -999.0
07-10-2022, 00:09:10,    213,    1.3,   10.2,   0.00,   0.00, 1019.5,   86.6, -999.0
07-10-2022, 00:09:19,    210,    0.6,   10.3,   0.00,   0.00, 1019.5,   86.4, -999.0
07-10-2022, 00:09:29,    209,    0.1,   10.2,   0.00,   0.00, 1019.5,   86.3, -999.0
07-10-2022, 00:09:40,    231,    1.8,   10.3,   0.00,   0.00, 1019.5,   86.5, -999.0
07-10-2022, 00:09:49,    200,    3.7,   10.3,   0.00,   0.00, 1019.5,   86.5, -999.0
07-10-2022, 00:09:59,    181,    1.4,   10.3,   0.00,   0.00, 1019.5,   86.5, -999.0
07-10-2022, 00:10:09,    156,    1.8,   10.3,   0.00,   0.00, 1019.5,   86.6, -999.0
07-10-2022, 00:10:19,    155,    0.2,   10.3,   0.00,   0.00, 1019.4,   86.3, -999.0
07-10-2022, 00:10:29,    196,    0.2,   10.2,   0.00,   0.00, 1019.5,   86.3, -999.0
07-10-2022, 00:10:39,    207,    1.0,   10.3,   0.00,   0.00, 1019.5,   86.5, -999.0
07-10-2022, 00:10:49,    194,    1.3,   10.3,   0.00,   0.00, 1019.5,   86.5, -999.0
07-10-2022, 00:10:59,    194,    0.5,   10.3,   0.00,   0.00, 1019.5,   86.6, -999.0
07-10-2022, 00:11:09,    213,    0.4,   10.3,   0.00,   0.00, 1019.5,   86.5, -999.0
07-10-2022, 00:11:19,    204,    0.3,   10.3,   0.00,   0.00, 1019.5,   86.4, -999.0
07-10-2022, 00:11:28,    204,    0.0,   10.2,   0.00,   0.00, 1019.4,   86.4, -999.0
07-10-2022, 00:11:39,    204,    0.0,   10.2,   0.00,   0.00, 1019.4,   86.3, -999.0
07-10-2022, 00:11:49,    205,    0.0,   10.2,   0.00,   0.00, 1019.4,   86.2, -999.0
07-10-2022, 00:11:58,    207,    0.0,   10.2,   0.00,   0.00, 1019.4,   86.2, -999.0
07-10-2022, 00:12:09,    266,    0.0,   10.2,   0.00,   0.00, 1019.4,   86.3, -999.0
07-10-2022, 00:12:19,    266,    0.0,   10.2,   0.00,   0.00, 1019.4,   86.2, -999.0
07-10-2022, 00:12:28,    255,    0.0,   10.2,   0.00,   0.00, 1019.4,   86.1, -999.0
07-10-2022, 00:12:38,    225,    1.2,   10.2,   0.00,   0.00, 1019.5,   86.5, -999.0
07-10-2022, 00:12:48,    218,    2.4,   10.3,   0.00,   0.00, 1019.5,   86.6, -999.0
07-10-2022, 00:12:58,    216,    1.1,   10.3,   0.00,   0.00, 1019.5,   86.7, -999.0
07-10-2022, 00:13:08,    191,    1.3,   10.3,   0.00,   0.00, 1019.5,   86.7, -999.0
07-10-2022, 00:13:18,    200,    0.5,   10.3,   0.00,   0.00, 1019.5,   86.6, -999.0
07-10-2022, 00:13:28,    209,    3.4,   10.3,   0.00,   0.00, 1019.5,   86.7, -999.0
07-10-2022, 00:13:38,    213,    2.0,   10.3,   0.00,   0.00, 1019.5,   86.8, -999.0
07-10-2022, 00:13:48,    185,    0.5,   10.2,   0.00,   0.00, 1019.5,   86.8, -999.0
07-10-2022, 00:13:58,    184,    0.1,   10.1,   0.00,   0.00, 1019.4,   86.6, -999.0
07-10-2022, 00:14:08,    184,    0.0,   10.2,   0.00,   0.00, 1019.4,   86.5, -999.0
07-10-2022, 00:14:18,    208,    0.9,   10.2,   0.00,   0.00, 1019.5,   86.7, -999.0
07-10-2022, 00:14:28,    220,    2.3,   10.2,   0.00,   0.00, 1019.5,   86.8, -999.0
07-10-2022, 00:14:37,    191,    1.6,   10.3,   0.00,   0.00, 1019.5,   86.8, -999.0
07-10-2022, 00:14:48,    191,    0.4,   10.2,   0.00,   0.00, 1019.4,   86.7, -999.0
07-10-2022, 00:14:58,    186,    2.1,   10.3,   0.00,   0.00, 1019.5,   86.9, -999.0
07-10-2022, 00:15:07,    210,    1.8,   10.2,   0.00,   0.00, 1019.5,   86.9, -999.0
07-10-2022, 00:15:18,    169,    2.7,   10.2,   0.00,   0.00, 1019.5,   86.9, -999.0
07-10-2022, 00:15:28,    209,    2.1,   10.3,   0.00,   0.00, 1019.5,   86.9, -999.0
07-10-2022, 00:15:37,    225,    1.0,   10.3,   0.00,   0.00, 1019.5,   87.0, -999.0
07-10-2022, 00:15:47,    221,    0.2,   10.2,   0.00,   0.00, 1019.5,   86.7, -999.0
07-10-2022, 00:15:57,    214,    0.1,   10.2,   0.00,   0.00, 1019.5,   86.8, -999.0
07-10-2022, 00:16:07,    216,    0.2,   10.2,   0.00,   0.00, 1019.5,   86.8, -999.0
07-10-2022, 00:16:17,    202,    0.3,   10.2,   0.00,   0.00, 1019.5,   86.9, -999.0
07-10-2022, 00:16:27,    172,    0.7,   10.2,   0.00,   0.00, 1019.5,   87.0, -999.0
07-10-2022, 00:16:37,    231,    0.3,   10.2,   0.00,   0.00, 1019.5,   86.9, -999.0
07-10-2022, 00:16:47,    206,    0.0,   10.1,   0.00,   0.00, 1019.4,   86.6, -999.0
07-10-2022, 00:16:57,    221,    0.5,   10.2,   0.00,   0.00, 1019.5,   86.9, -999.0
07-10-2022, 00:17:07,    229,    1.2,   10.2,   0.00,   0.00, 1019.5,   86.9, -999.0
07-10-2022, 00:17:17,    230,    0.1,   10.1,   0.00,   0.00, 1019.4,   86.8, -999.0
07-10-2022, 00:17:27,    208,    0.5,   10.1,   0.00,   0.00, 1019.5,   86.9, -999.0
07-10-2022, 00:17:37,    212,    1.9,   10.2,   0.00,   0.00, 1019.5,   87.0, -999.0
07-10-2022, 00:17:46,    213,    0.4,   10.2,   0.00,   0.00, 1019.5,   87.0, -999.0
07-10-2022, 00:17:57,    183,    0.9,   10.2,   0.00,   0.00, 1019.5,   87.1, -999.0
07-10-2022, 00:18:07,    189,    1.5,   10.2,   0.00,   0.00, 1019.5,   87.1, -999.0
07-10-2022, 00:18:16,    242,    3.0,   10.3,   0.00,   0.00, 1019.5,   87.2, -999.0
07-10-2022, 00:18:27,    211,    2.1,   10.2,   0.00,   0.00, 1019.5,   87.2, -999.0
07-10-2022, 00:18:36,    208,    1.9,   10.2,   0.00,   0.00, 1019.5,   87.2, -999.0
07-10-2022, 00:18:46,    211,    3.9,   10.2,   0.00,   0.00, 1019.5,   87.2, -999.0
07-10-2022, 00:18:56,    213,    3.4,   10.2,   0.00,   0.00, 1019.5,   87.3, -999.0
07-10-2022, 00:19:06,    230,    2.9,   10.3,   0.00,   0.00, 1019.4,   87.3, -999.0
07-10-2022, 00:19:16,    225,    0.3,   10.3,   0.00,   0.00, 1019.4,   87.2, -999.0
07-10-2022, 00:19:26,    226,    0.0,   10.2,   0.00,   0.00, 1019.4,   87.0, -999.0
07-10-2022, 00:19:36,    228,    0.8,   10.3,   0.00,   0.00, 1019.5,   87.2, -999.0
07-10-2022, 00:19:46,    195,    0.7,   10.2,   0.00,   0.00, 1019.5,   87.2, -999.0
07-10-2022, 00:19:56,    211,    1.0,   10.3,   0.00,   0.00, 1019.5,   87.2, -999.0
07-10-2022, 00:20:06,    217,    2.1,   10.2,   0.00,   0.00, 1019.5,   87.2, -999.0
07-10-2022, 00:20:16,    161,    0.9,   10.3,   0.00,   0.00, 1019.5,   87.2, -999.0
07-10-2022, 00:20:26,    232,    3.2,   10.3,   0.00,   0.00, 1019.4,   87.2, -999.0
07-10-2022, 00:20:36,    164,    3.2,   10.3,   0.00,   0.00, 1019.5,   87.2, -999.0
07-10-2022, 00:20:46,    211,    3.6,   10.2,   0.00,   0.00, 1019.5,   87.2, -999.0
07-10-2022, 00:20:56,    204,    3.0,   10.3,   0.00,   0.00, 1019.5,   87.3, -999.0
07-10-2022, 00:21:06,    198,    1.4,   10.3,   0.00,   0.00, 1019.5,   87.3, -999.0
07-10-2022, 00:21:15,    192,    1.9,   10.3,   0.00,   0.00, 1019.5,   87.3, -999.0
07-10-2022, 00:21:25,    204,    0.5,   10.2,   0.00,   0.00, 1019.5,   87.1, -999.0
07-10-2022, 00:21:36,    204,    0.0,   10.2,   0.00,   0.00, 1019.4,   86.9, -999.0
07-10-2022, 00:21:45,    195,    0.6,   10.1,   0.00,   0.00, 1019.4,   87.0, -999.0
07-10-2022, 00:21:55,    190,    1.4,   10.2,   0.00,   0.00, 1019.5,   87.2, -999.0
07-10-2022, 00:22:05,    190,    0.4,   10.3,   0.00,   0.00, 1019.5,   87.2, -999.0
07-10-2022, 00:22:15,    189,    0.0,   10.2,   0.00,   0.00, 1019.4,   86.9, -999.0
07-10-2022, 00:22:25,    210,    0.5,   10.2,   0.00,   0.00, 1019.5,   87.1, -999.0
07-10-2022, 00:22:35,    242,    0.6,   10.3,   0.00,   0.00, 1019.5,   87.1, -999.0
07-10-2022, 00:22:45,    225,    0.8,   10.2,   0.00,   0.00, 1019.5,   87.0, -999.0
07-10-2022, 00:22:55,    231,    0.8,   10.3,   0.00,   0.00, 1019.5,   87.2, -999.0
07-10-2022, 00:23:05,    234,    0.5,   10.2,   0.00,   0.00, 1019.5,   87.0, -999.0
07-10-2022, 00:23:15,    174,    2.6,   10.3,   0.00,   0.00, 1019.5,   87.2, -999.0
07-10-2022, 00:23:25,    228,    1.6,   10.3,   0.00,   0.00, 1019.5,   87.3, -999.0
07-10-2022, 00:23:35,    220,    1.7,   10.3,   0.00,   0.00, 1019.5,   87.3, -999.0
07-10-2022, 00:23:45,    230,    2.2,   10.3,   0.00,   0.00, 1019.5,   87.3, -999.0
07-10-2022, 00:23:54,    207,    1.6,   10.3,   0.00,   0.00, 1019.5,   87.3, -999.0
07-10-2022, 00:24:05,    205,    1.3,   10.3,   0.00,   0.00, 1019.5,   87.3, -999.0
07-10-2022, 00:24:15,    216,    0.5,   10.3,   0.00,   0.00, 1019.5,   87.2, -999.0
07-10-2022, 00:24:24,    225,    1.0,   10.2,   0.00,   0.00, 1019.5,   87.3, -999.0
07-10-2022, 00:24:34,    225,    0.2,   10.2,   0.00,   0.00, 1019.4,   87.1, -999.0
07-10-2022, 00:24:45,    225,    0.0,   10.2,   0.00,   0.00, 1019.3,   86.8, -999.0
07-10-2022, 00:24:54,    208,    0.2,   10.2,   0.00,   0.00, 1019.4,   86.9, -999.0
07-10-2022, 00:25:04,    183,    0.3,   10.2,   0.00,   0.00, 1019.4,   87.0, -999.0
07-10-2022, 00:25:14,    201,    0.4,   10.2,   0.00,   0.00, 1019.4,   87.0, -999.0
07-10-2022, 00:25:24,    219,    1.3,   10.3,   0.00,   0.00, 1019.4,   87.2, -999.0
07-10-2022, 00:25:34,    219,    0.0,   10.2,   0.00,   0.00, 1019.3,   86.9, -999.0
07-10-2022, 00:25:44,    184,    0.0,   10.2,   0.00,   0.00, 1019.3,   86.9, -999.0
07-10-2022, 00:25:54,    209,    0.2,   10.2,   0.00,   0.00, 1019.4,   87.0, -999.0
07-10-2022, 00:26:04,    207,    0.3,   10.2,   0.00,   0.00, 1019.4,   87.1, -999.0
07-10-2022, 00:26:14,    216,    0.0,   10.2,   0.00,   0.00, 1019.4,   87.0, -999.0
07-10-2022, 00:26:24,    203,    0.5,   10.2,   0.00,   0.00, 1019.5,   87.2, -999.0
07-10-2022, 00:26:34,    200,    0.3,   10.2,   0.00,   0.00, 1019.4,   87.2, -999.0
07-10-2022, 00:26:44,    200,    0.0,   10.1,   0.00,   0.00, 1019.3,   86.8, -999.0
07-10-2022, 00:26:54,    183,    0.2,   10.1,   0.00,   0.00, 1019.4,   87.0, -999.0
07-10-2022, 00:27:03,    185,    2.4,   10.2,   0.00,   0.00, 1019.5,   87.3, -999.0
07-10-2022, 00:27:14,    198,    0.6,   10.2,   0.00,   0.00, 1019.5,   87.3, -999.0
07-10-2022, 00:27:24,    200,    0.5,   10.2,   0.00,   0.00, 1019.5,   87.3, -999.0
07-10-2022, 00:27:33,    200,    0.5,   10.2,   0.00,   0.00, 1019.4,   87.2, -999.0
07-10-2022, 00:27:43,    217,    0.9,   10.2,   0.00,   0.00, 1019.5,   87.3, -999.0
07-10-2022, 00:27:54,    215,    0.2,   10.2,   0.00,   0.00, 1019.4,   87.2, -999.0
07-10-2022, 00:28:03,    148,    0.8,   10.2,   0.00,   0.00, 1019.5,   87.3, -999.0
07-10-2022, 00:28:13,    148,    0.1,   10.1,   0.00,   0.00, 1019.4,   87.1, -999.0
07-10-2022, 00:28:23,    189,    0.0,   10.1,   0.00,   0.00, 1019.4,   87.0, -999.0
07-10-2022, 00:28:33,    195,    1.5,   10.2,   0.00,   0.00, 1019.5,   87.3, -999.0
07-10-2022, 00:28:43,    209,    0.8,   10.2,   0.00,   0.00, 1019.5,   87.4, -999.0
07-10-2022, 00:28:53,    230,    1.1,   10.2,   0.00,   0.00, 1019.5,   87.3, -999.0
07-10-2022, 00:29:03,    235,    2.4,   10.2,   0.00,   0.00, 1019.5,   87.5, -999.0
07-10-2022, 00:29:13,    194,    0.8,   10.2,   0.00,   0.00, 1019.5,   87.5, -999.0
07-10-2022, 00:29:23,    194,    0.9,   10.3,   0.00,   0.00, 1019.5,   87.5, -999.0
07-10-2022, 00:29:33,    199,    0.9,   10.3,   0.00,   0.00, 1019.5,   87.5, -999.0
07-10-2022, 00:29:43,    203,    2.8,   10.2,   0.00,   0.00, 1019.5,   87.6, -999.0
07-10-2022, 00:29:53,    188,    1.4,   10.2,   0.00,   0.00, 1019.5,   87.6, -999.0
07-10-2022, 00:30:03,    214,    0.8,   10.3,   0.00,   0.00, 1019.5,   87.6, -999.0
07-10-2022, 00:30:12,    206,    1.6,   10.2,   0.00,   0.00, 1019.5,   87.6, -999.0
07-10-2022, 00:30:23,    211,    1.6,   10.3,   0.00,   0.00, 1019.5,   87.5, -999.0
07-10-2022, 00:30:33,    194,    3.9,   10.3,   0.00,   0.00, 1019.5,   87.5, -999.0
07-10-2022, 00:30:42,    185,    1.3,   10.3,   0.00,   0.00, 1019.5,   87.5, -999.0
07-10-2022, 00:30:52,    185,    0.2,   10.3,   0.00,   0.00, 1019.5,   87.4, -999.0
07-10-2022, 00:31:03,    207,    1.3,   10.2,   0.00,   0.00, 1019.5,   87.5, -999.0
07-10-2022, 00:31:12,    206,    0.3,   10.2,   0.00,   0.00, 1019.4,   87.4, -999.0
07-10-2022, 00:31:22,    211,    0.3,   10.2,   0.00,   0.00, 1019.5,   87.4, -999.0
07-10-2022, 00:31:32,    210,    1.1,   10.3,   0.00,   0.00, 1019.5,   87.5, -999.0
07-10-2022, 00:31:42,    218,    0.7,   10.2,   0.00,   0.00, 1019.5,   87.4, -999.0
07-10-2022, 00:31:52,    218,    0.0,   10.2,   0.00,   0.00, 1019.4,   87.0, -999.0
07-10-2022, 00:32:02,    218,    0.0,   10.2,   0.00,   0.00, 1019.4,   87.1, -999.0
07-10-2022, 00:32:12,    223,    0.0,   10.1,   0.00,   0.00, 1019.4,   87.2, -999.0
07-10-2022, 00:32:22,    223,    0.0,   10.1,   0.00,   0.00, 1019.4,   87.0, -999.0
07-10-2022, 00:32:32,    223,    0.0,   10.1,   0.00,   0.00, 1019.4,   86.9, -999.0
07-10-2022, 00:32:42,    154,    0.7,   10.2,   0.00,   0.00, 1019.4,   87.1, -999.0
07-10-2022, 00:32:52,    206,    0.7,   10.2,   0.00,   0.00, 1019.5,   87.2, -999.0
07-10-2022, 00:33:02,    216,    1.4,   10.3,   0.00,   0.00, 1019.5,   87.4, -999.0
07-10-2022, 00:33:12,    227,    2.1,   10.3,   0.00,   0.00, 1019.5,   87.5, -999.0
07-10-2022, 00:33:21,    216,    1.5,   10.3,   0.00,   0.00, 1019.5,   87.6, -999.0
07-10-2022, 00:33:32,    223,    1.8,   10.3,   0.00,   0.00, 1019.5,   87.6, -999.0
07-10-2022, 00:33:42,    209,    1.0,   10.3,   0.00,   0.00, 1019.5,   87.6, -999.0
07-10-2022, 00:33:51,    216,    1.1,   10.3,   0.00,   0.00, 1019.5,   87.6, -999.0
07-10-2022, 00:34:01,    190,    0.6,   10.3,   0.00,   0.00, 1019.5,   87.5, -999.0
07-10-2022, 00:34:11,    198,    0.5,   10.3,   0.00,   0.00, 1019.5,   87.6, -999.0
07-10-2022, 00:34:21,    200,    0.6,   10.3,   0.00,   0.00, 1019.5,   87.5, -999.0
07-10-2022, 00:34:31,    212,    2.0,   10.3,   0.00,   0.00, 1019.5,   87.4, -999.0
07-10-2022, 00:34:41,    248,    2.6,   10.3,   0.00,   0.00, 1019.5,   87.5, -999.0
07-10-2022, 00:34:51,    228,    0.7,   10.3,   0.00,   0.00, 1019.4,   87.4, -999.0
07-10-2022, 00:35:01,    175,    1.0,   10.3,   0.00,   0.00, 1019.5,   87.5, -999.0
07-10-2022, 00:35:11,    201,    1.3,   10.3,   0.00,   0.00, 1019.4,   87.4, -999.0
07-10-2022, 00:35:21,    218,    1.6,   10.3,   0.00,   0.00, 1019.5,   87.4, -999.0
07-10-2022, 00:35:31,    191,    0.6,   10.3,   0.00,   0.00, 1019.4,   87.4, -999.0
07-10-2022, 00:35:41,    154,    2.7,   10.3,   0.00,   0.00, 1019.4,   87.5, -999.0
07-10-2022, 00:35:51,    210,    1.6,   10.3,   0.00,   0.00, 1019.4,   87.4, -999.0
07-10-2022, 00:36:01,    203,    1.2,   10.4,   0.00,   0.00, 1019.4,   87.4, -999.0
07-10-2022, 00:36:11,    211,    1.8,   10.4,   0.00,   0.00, 1019.5,   87.4, -999.0
07-10-2022, 00:36:21,    203,    2.2,   10.4,   0.00,   0.00, 1019.5,   87.4, -999.0
07-10-2022, 00:36:30,    211,    3.2,   10.4,   0.00,   0.00, 1019.4,   87.4, -999.0
07-10-2022, 00:36:41,    212,    2.4,   10.4,   0.00,   0.00, 1019.4,   87.4, -999.0
07-10-2022, 00:36:51,    222,    2.5,   10.4,   0.00,   0.00, 1019.4,   87.4, -999.0
07-10-2022, 00:37:00,    216,    0.9,   10.3,   0.00,   0.00, 1019.4,   87.3, -999.0
07-10-2022, 00:37:10,    196,    1.3,   10.3,   0.00,   0.00, 1019.4,   87.3, -999.0
07-10-2022, 00:37:20,    248,    1.0,   10.4,   0.00,   0.00, 1019.4,   87.2, -999.0
07-10-2022, 00:37:30,    242,    0.0,   10.2,   0.00,   0.00, 1019.3,   86.9, -999.0
07-10-2022, 00:37:40,    210,    1.6,   10.3,   0.00,   0.00, 1019.4,   87.2, -999.0
07-10-2022, 00:37:50,    233,    2.7,   10.4,   0.00,   0.00, 1019.4,   87.2, -999.0
07-10-2022, 00:38:00,    198,    0.4,   10.4,   0.00,   0.00, 1019.3,   87.1, -999.0
07-10-2022, 00:38:10,    197,    0.3,   10.3,   0.00,   0.00, 1019.3,   87.0, -999.0
07-10-2022, 00:38:20,    203,    0.4,   10.4,   0.00,   0.00, 1019.4,   87.2, -999.0
07-10-2022, 00:38:30,    219,    2.0,   10.3,   0.00,   0.00, 1019.4,   87.2, -999.0
07-10-2022, 00:38:40,    206,    2.2,   10.3,   0.00,   0.00, 1019.4,   87.2, -999.0
07-10-2022, 00:38:50,    231,    4.2,   10.3,   0.00,   0.00, 1019.4,   87.2, -999.0
07-10-2022, 00:39:00,    193,    3.4,   10.3,   0.00,   0.00, 1019.4,   87.2, -999.0
07-10-2022, 00:39:10,    185,    1.7,   10.3,   0.00,   0.00, 1019.4,   87.2, -999.0
07-10-2022, 00:39:20,    194,    1.5,   10.3,   0.00,   0.00, 1019.4,   87.2, -999.0
07-10-2022, 00:39:30,    187,    1.7,   10.3,   0.00,   0.00, 1019.4,   87.1, -999.0
07-10-2022, 00:39:39,    193,    0.2,   10.2,   0.00,   0.00, 1019.4,   87.1, -999.0
07-10-2022, 00:39:50,    191,    0.4,   10.3,   0.00,   0.00, 1019.4,   87.2, -999.0
07-10-2022, 00:39:59,    191,    0.2,   10.3,   0.00,   0.00, 1019.3,   87.1, -999.0
07-10-2022, 00:40:09,    191,    0.0,   10.3,   0.00,   0.00, 1019.2,   86.7, -999.0
07-10-2022, 00:40:19,    191,    0.0,   10.3,   0.00,   0.00, 1019.2,   86.9, -999.0
07-10-2022, 00:40:29,    200,    0.0,   10.2,   0.00,   0.00, 1019.2,   86.8, -999.0
07-10-2022, 00:40:39,    205,    0.1,   10.3,   0.00,   0.00, 1019.3,   86.9, -999.0
07-10-2022, 00:40:49,    206,    0.0,   10.3,   0.00,   0.00, 1019.2,   86.9, -999.0
07-10-2022, 00:40:59,    216,    0.6,   10.3,   0.00,   0.00, 1019.3,   86.9, -999.0
07-10-2022, 00:41:09,    220,    0.6,   10.2,   0.00,   0.00, 1019.3,   87.0, -999.0
07-10-2022, 00:41:19,    185,    1.1,   10.3,   0.00,   0.00, 1019.3,   87.1, -999.0
07-10-2022, 00:41:29,    210,    2.2,   10.3,   0.00,   0.00, 1019.4,   87.2, -999.0
07-10-2022, 00:41:39,    200,    0.5,   10.3,   0.00,   0.00, 1019.3,   87.0, -999.0
07-10-2022, 00:41:49,    200,    0.0,   10.2,   0.00,   0.00, 1019.3,   86.9, -999.0
07-10-2022, 00:41:59,    200,    0.0,   10.2,   0.00,   0.00, 1019.2,   86.8, -999.0
07-10-2022, 00:42:09,    200,    0.0,   10.2,   0.00,   0.00, 1019.3,   86.9, -999.0
07-10-2022, 00:42:19,    200,    0.1,   10.2,   0.00,   0.00, 1019.3,   87.0, -999.0
07-10-2022, 00:42:29,    171,    1.1,   10.3,   0.00,   0.00, 1019.4,   87.2, -999.0
07-10-2022, 00:42:39,    214,    1.5,   10.3,   0.00,   0.00, 1019.4,   87.2, -999.0
07-10-2022, 00:42:48,    236,    1.0,   10.3,   0.00,   0.00, 1019.4,   87.3, -999.0
07-10-2022, 00:42:59,    173,    0.9,   10.2,   0.00,   0.00, 1019.3,   87.1, -999.0
07-10-2022, 00:43:08,    150,    2.0,   10.3,   0.00,   0.00, 1019.4,   87.3, -999.0
07-10-2022, 00:43:18,    252,    2.4,   10.3,   0.00,   0.00, 1019.4,   87.3, -999.0
07-10-2022, 00:43:28,    240,    2.5,   10.3,   0.00,   0.00, 1019.4,   87.4, -999.0
07-10-2022, 00:43:38,    206,    2.8,   10.3,   0.00,   0.00, 1019.4,   87.4, -999.0
07-10-2022, 00:43:48,    201,    1.6,   10.3,   0.00,   0.00, 1019.3,   87.5, -999.0
07-10-2022, 00:43:58,    204,    0.2,   10.3,   0.00,   0.00, 1019.4,   87.4, -999.0
07-10-2022, 00:44:08,    206,    0.0,   10.3,   0.00,   0.00, 1019.3,   87.2, -999.0
07-10-2022, 00:44:18,    196,    0.0,   10.2,   0.00,   0.00, 1019.3,   87.1, -999.0
07-10-2022, 00:44:28,    200,    0.0,   10.2,   0.00,   0.00, 1019.3,   87.1, -999.0
07-10-2022, 00:44:38,    209,    1.0,   10.2,   0.00,   0.00, 1019.4,   87.4, -999.0
07-10-2022, 00:44:48,    187,    2.9,   10.3,   0.00,   0.00, 1019.3,   87.4, -999.0
07-10-2022, 00:44:58,    189,    0.8,   10.3,   0.00,   0.00, 1019.3,   87.4, -999.0
07-10-2022, 00:45:08,    204,    0.2,   10.3,   0.00,   0.00, 1019.3,   87.3, -999.0
07-10-2022, 00:45:18,    238,    1.3,   10.3,   0.00,   0.00, 1019.4,   87.4, -999.0
07-10-2022, 00:45:28,    233,    1.5,   10.3,   0.00,   0.00, 1019.3,   87.5, -999.0
07-10-2022, 00:45:38,    231,    0.4,   10.2,   0.00,   0.00, 1019.3,   87.4, -999.0
07-10-2022, 00:45:47,    173,    0.3,   10.2,   0.00,   0.00, 1019.3,   87.5, -999.0
07-10-2022, 00:45:57,    217,    0.8,   10.3,   0.00,   0.00, 1019.4,   87.5, -999.0
07-10-2022, 00:46:08,    245,    0.7,   10.3,   0.00,   0.00, 1019.4,   87.6, -999.0
07-10-2022, 00:46:17,    244,    0.4,   10.2,   0.00,   0.00, 1019.3,   87.4, -999.0
07-10-2022, 00:46:27,    244,    0.1,   10.2,   0.00,   0.00, 1019.3,   87.3, -999.0
07-10-2022, 00:46:37,    174,    0.0,   10.2,   0.00,   0.00, 1019.2,   87.3, -999.0